Home > Weather > Rochester > Past weeks

Flag for USA Past Weather in Rochester, New York, USA — Yesterday and Last 2 Weeks

Now
69 °F

Partly cloudy.


Feels Like: 69 °F
Forecast: 66 / 75 °F
Wind: 3 mph from West

Location: Greater Rochester International Airport

Current Time: Jun 28, 2016 at 2:15:13 AM

Latest Report: Jun 28, 2016 at 1:54 AM


Visibility: 10 mi

Pressure: 29.87 "Hg

Humidity: 66%

Dew Point: 57 °F

Location of RochesterLocation

Past Weather in Rochester — Graph

°F

Rochester Temperature Yesterday

Maximum temperature yesterday: 89 °F (at 12:54 PM)
Minimum temperature yesterday: 71 °F (at 6:54 AM)
Average temperature yesterday: 80 °F

High & Low Weather Summary for the Past Weeks

 TemperatureHumidityPressure
High93 °F (Jun 26, 4:54 PM)93% (Jun 14, 4:54 AM)30.31 "Hg (Jun 14, 4:54 AM)
Low45 °F (Jun 14, 4:54 AM)17% (Jun 18, 3:54 PM)29.73 "Hg (Jun 16, 4:54 PM)
Average71 °F54%30.00 "Hg
* Reported Jun 13 12:54 AM — Jun 28 12:54 AM, Rochester, Weather by CustomWeather, © 2016

Note: Actual official high and low records may vary slightly from our data, if they occured in-between our weather recording intervals... More about our weather records

Advertising

Rochester Weather History for the Previous 24 Hours

Scroll right to see more
 ConditionsComfort  
Time TempWeatherWind HumidityBarometerVisibility
12:54 AM
Tue, Jun 28
72 °FPassing clouds.6 mph57%29.88 "Hg10 mi
11:54 PM
Mon, Jun 27
73 °FPassing clouds.6 mph55%29.87 "Hg10 mi
10:54 PM75 °FPassing clouds.6 mph52%29.89 "Hg10 mi
9:54 PM76 °FPassing clouds.6 mph50%29.90 "Hg10 mi
8:54 PM78 °FPassing clouds.7 mph46%29.89 "Hg10 mi
7:54 PM84 °FPassing clouds.10 mph35%29.87 "Hg10 mi
6:54 PM87 °FPassing clouds.15 mph35%29.87 "Hg10 mi
5:54 PM88 °FPassing clouds.13 mph35%29.87 "Hg10 mi
4:54 PM88 °FScattered clouds.10 mph36%29.87 "Hg10 mi
3:54 PM89 °FPassing clouds.10 mph36%29.87 "Hg10 mi
2:54 PM89 °FPassing clouds.18 mph29%29.88 "Hg10 mi
1:54 PM89 °FScattered clouds.21 mph38%29.88 "Hg10 mi
12:54 PM89 °FScattered clouds.15 mph41%29.90 "Hg10 mi
11:54 AM83 °FBroken clouds.10 mph59%29.92 "Hg10 mi
10:54 AM81 °FBroken clouds.13 mph72%29.93 "Hg10 mi
9:54 AM76 °FMostly cloudy.10 mph88%29.93 "Hg10 mi
8:54 AM72 °FMore clouds than sun.8 mph93%29.93 "Hg8 mi
7:54 AM71 °FMore clouds than sun.12 mph93%29.93 "Hg7 mi
6:54 AM71 °FLight rain. Mostly cloudy.10 mph93%29.93 "Hg9 mi
5:54 AM72 °FLight rain. Overcast.9 mph91%29.92 "Hg9 mi
4:54 AM72 °FLight rain. Overcast.9 mph91%29.93 "Hg8 mi
3:54 AM77 °FOvercast.9 mph66%29.93 "Hg10 mi
2:54 AM78 °FMostly cloudy.15 mph64%29.93 "Hg10 mi
Weather by CustomWeather, © 2016

See weather overviewHow to use our weather pages